[[{"header":{"parameterUnit":"m.s-1","parameterCategory":1,"la1":30.2991,"la2":30.254,"lo1":-89.0895,"lo2":-89.0444,"dy":0.0017,"dx":0.0017,"nx":28,"ny":28,"refTime":"2026-01-30T03:00:00:Z","depth":0,"parameterNumber":2,"parameterNumberName":"U-component_of_WINDS"},"data":[0,0,0,0,0,0,0,0,0,0,0,0,0,0,0,0,0,0,0,0,0,0,0,0,0,0,0,0,0,0,0,0,0,0,0,0,0,0,0,0,0,0,0,0,0,0,0,0,0,0,0,0,0,0,0,0,0,0,-0.0932,-0.0932,0,-0.0912,-0.0912,-0.0911,-0.0895,-0.0895,-0.0895,-0.0894,-0.0874,-0.0873,-0.0873,0,0,0,0,0,0,0,0,0,0,0,0,0,-0.0955,-0.0955,-0.0932,-0.0932,-0.0932,-0.0912,-0.0912,-0.0911,-0.0895,-0.0895,-0.0895,-0.0894,-0.0874,-0.0873,-0.0873,0,0,0,0,0,0,0,0,0,0,0,0,0,-0.0941,-0.0955,-0.0933,-0.0921,-0.092,-0.0912,-0.0912,-0.0911,-0.0895,-0.0895,-0.0894,-0.0894,-0.0874,-0.0873,-0.0873,-0.0874,0,0,-0.0871,-0.0871,0,0,0,0,0,0,0,0,-0.0942,-0.094,-0.0923,-0.0922,-0.0921,-0.0906,-0.0912,-0.0899,-0.0895,-0.0905,-0.0894,-0.0894,-0.0885,-0.0883,-0.088,-0.0873,-0.0872,-0.0871,-0.0871,-0.087,-0.087,0,0,0,0,0,0,0,-0.0943,-0.0941,-0.0924,-0.0923,-0.0921,-0.0917,-0.0914,-0.0909,-0.0896,-0.0904,-0.0902,-0.09,-0.0884,-0.088,-0.0879,-0.0872,-0.0871,-0.0871,-0.087,-0.087,-0.0862,-0.0862,0,0,0,0,0,0,-0.0946,-0.0942,-0.0925,-0.0924,-0.0931,-0.0916,-0.0914,-0.0911,-0.0896,-0.0894,-0.09,-0.09,-0.0882,-0.088,-0.0878,-0.0877,-0.087,-0.087,-0.087,-0.0861,-0.0862,-0.0862,0,0,0,0,0,0,-0.0946,-0.0945,-0.0926,-0.0932,-0.093,-0.0916,-0.0913,-0.0911,-0.0907,-0.0894,-0.0891,-0.09,-0.0881,-0.0879,-0.0875,-0.0876,-0.087,-0.0869,-0.0861,-0.0862,-0.0862,-0.0875,0,0,0,0,0,0,-0.0947,-0.0945,-0.0946,-0.0933,-0.0929,-0.0923,-0.0913,-0.091,-0.0906,-0.0905,-0.0892,-0.089,-0.0881,-0.0875,-0.0874,-0.0875,-0.0869,-0.0861,-0.0861,-0.0862,-0.0874,-0.0876,-0.0877,0,0,0,0,0,-0.0948,-0.0952,-0.0946,-0.0944,-0.0931,-0.0923,-0.0921,-0.0911,-0.0906,-0.0907,-0.0897,-0.089,-0.0876,-0.0875,-0.0873,-0.0874,-0.0861,-0.0861,-0.0862,-0.0874,-0.0875,-0.0877,0,0,0,0,0,0,-0.0967,-0.095,-0.0944,-0.0943,-0.0935,-0.0921,-0.0921,-0.0913,-0.0906,-0.0905,-0.0892,-0.089,-0.0886,-0.0879,-0.0879,-0.0873,-0.0867,-0.0867,-0.0877,-0.0879,-0.088,-0.0881,-0.0868,0,0,0,0,0,-0.097,-0.0966,-0.0952,-0.0952,-0.0948,-0.0935,-0.0932,-0.0924,-0.0915,-0.0911,-0.0902,-0.0893,-0.0886,-0.0882,-0.0875,-0.0873,-0.0869,-0.0872,-0.0874,-0.0875,-0.0875,-0.087,-0.0871,-0.0863,-0.0863,-0.0863,0,0,-0.0979,-0.0969,-0.0967,-0.0956,-0.0948,-0.0943,-0.0933,-0.0928,-0.0924,-0.0911,-0.0905,-0.0897,-0.0886,-0.0882,-0.088,-0.0877,-0.0875,-0.0875,-0.0876,-0.0875,-0.087,-0.0871,-0.0872,-0.0863,-0.0863,-0.0863,0,0,-0.0991,-0.0984,-0.0983,-0.0974,-0.0963,-0.0953,-0.0953,-0.0939,-0.0933,-0.0927,-0.0916,-0.091,-0.0899,-0.0891,-0.0885,-0.089,-0.0882,-0.0888,-0.0894,-0.089,-0.089,-0.0891,-0.0891,-0.0891,-0.0888,-0.0888,-0.0888,0,-0.1003,-0.0996,-0.0983,-0.0978,-0.0972,-0.0958,-0.0956,-0.0949,-0.0935,-0.0931,-0.0928,-0.0911,-0.0903,-0.0895,-0.0896,-0.0892,-0.089,-0.089,-0.0891,-0.0892,-0.0892,-0.0891,-0.0892,-0.0889,-0.0889,-0.0889,-0.0889,0,-0.101,-0.1004,-0.1004,-0.099,-0.0984,-0.0981,-0.0966,-0.0962,-0.0953,-0.0944,-0.0936,-0.0925,-0.0914,-0.0911,-0.0904,-0.0901,-0.09,-0.0894,-0.0888,-0.0893,-0.0893,-0.0893,-0.089,-0.089,-0.0889,-0.0889,0,0,-0.1036,-0.1012,-0.1012,-0.1004,-0.0989,-0.0984,-0.0978,-0.0967,-0.0962,-0.0952,-0.0946,-0.0935,-0.0928,-0.0922,-0.0913,-0.0909,-0.091,-0.0903,-0.0903,-0.0904,-0.0904,-0.0908,-0.0908,-0.0905,-0.0905,-0.0905,-0.0904,0,-0.1045,-0.1035,-0.1021,-0.1015,-0.1008,-0.0993,-0.0988,-0.0977,-0.0967,-0.0959,-0.0947,-0.0939,-0.0932,-0.0928,-0.0923,-0.0911,-0.091,-0.0911,-0.0898,-0.0897,-0.09,-0.0908,-0.0913,-0.0913,-0.0904,-0.0904,-0.0904,0,-0.1055,-0.1044,-0.1037,-0.1019,-0.1015,-0.1011,-0.0997,-0.099,-0.0976,-0.0969,-0.096,-0.0949,-0.094,-0.0935,-0.0922,-0.0922,-0.0916,-0.0908,-0.0908,-0.0906,-0.0901,-0.0905,-0.0913,-0.0913,-0.0904,-0.0904,-0.0904,0,-0.1073,-0.1057,-0.1049,-0.1043,-0.1022,-0.1019,-0.101,-0.0995,-0.0988,-0.0976,-0.097,-0.0958,-0.0951,-0.094,-0.0926,-0.0923,-0.0913,-0.0907,-0.0905,-0.0906,-0.0904,-0.0905,-0.0911,-0.0901,-0.0901,-0.0901,-0.0901,0,-0.1084,-0.108,-0.1057,-0.1053,-0.1046,-0.103,-0.1024,-0.1013,-0.1,-0.0992,-0.0978,-0.097,-0.0952,-0.0941,-0.093,-0.0919,-0.0916,-0.0909,-0.0906,-0.091,-0.0911,-0.0905,-0.0905,-0.0901,-0.0901,-0.0901,-0.0901,0,-0.1104,-0.1088,-0.1079,-0.1058,-0.1053,-0.1049,-0.1031,-0.1025,-0.1013,-0.1002,-0.0999,-0.098,-0.0967,-0.0951,-0.0933,-0.0925,-0.0914,-0.091,-0.0919,-0.0917,-0.0916,-0.0916,-0.0918,-0.0917,-0.091,-0.091,-0.091,0,-0.1112,-0.1108,-0.1086,-0.1079,-0.107,-0.106,-0.1052,-0.1035,-0.1026,-0.1007,-0.1003,-0.0989,-0.0976,-0.0955,-0.0939,-0.0924,-0.0919,-0.0921,-0.0917,-0.092,-0.0917,-0.0917,-0.0916,-0.0922,-0.0922,-0.0923,-0.0923,0,-0.1128,-0.1119,-0.1108,-0.1093,-0.1083,-0.1071,-0.1058,-0.1053,-0.1032,-0.1024,-0.1009,-0.0999,-0.0979,-0.0964,-0.0947,-0.0936,-0.0925,-0.0924,-0.0922,-0.0926,-0.0931,-0.0926,-0.0921,-0.0924,-0.0924,-0.0924,-0.0924,-0.0924,-0.1141,-0.1136,-0.1118,-0.1105,-0.1093,-0.108,-0.1073,-0.1058,-0.1046,-0.1029,-0.1018,-0.1004,-0.0986,-0.0961,-0.095,-0.0937,-0.0934,-0.0932,-0.0932,-0.0931,-0.0931,-0.0933,-0.0934,-0.0934,-0.0934,-0.0934,-0.0934,0,-0.1155,-0.1142,-0.113,-0.1111,-0.11,-0.109,-0.1074,-0.1065,-0.1052,-0.1037,-0.1024,-0.1005,-0.099,-0.0971,-0.0953,-0.0946,-0.0941,-0.0942,-0.0942,-0.0939,-0.0937,-0.0939,-0.0947,-0.0947,-0.0947,-0.0947,-0.0947,-0.0947,-0.1161,-0.115,-0.1139,-0.1121,-0.1108,-0.1093,-0.1084,-0.1071,-0.1058,-0.1039,-0.1025,-0.1013,-0.0995,-0.0975,-0.0959,-0.0954,-0.0947,-0.095,-0.0943,-0.0941,-0.094,-0.0939,-0.0941,-0.0949,-0.0949,-0.0947,-0.0947,-0.0947]},{"header":{"parameterUnit":"m.s-1","parameterCategory":1,"la1":30.2991,"la2":30.254,"lo1":-89.0895,"lo2":-89.0444,"dy":0.0017,"dx":0.0017,"nx":28,"ny":28,"refTime":"2026-01-30T03:00:00:Z","depth":0,"parameterNumber":3,"parameterNumberName":"V-component_of_WINDS"},"data":[0,0,0,0,0,0,0,0,0,0,0,0,0,0,0,0,0,0,0,0,0,0,0,0,0,0,0,0,0,0,0,0,0,0,0,0,0,0,0,0,0,0,0,0,0,0,0,0,0,0,0,0,0,0,0,0,0,0,-1.5516,-1.5517,0,-1.5567,-1.5567,-1.5568,-1.5539,-1.5538,-1.5536,-1.5535,-1.5584,-1.5587,-1.559,0,0,0,0,0,0,0,0,0,0,0,0,0,-1.5393,-1.5395,-1.5516,-1.5517,-1.5518,-1.5567,-1.5567,-1.5568,-1.5539,-1.5538,-1.5536,-1.5534,-1.5584,-1.5587,-1.559,0,0,0,0,0,0,0,0,0,0,0,0,0,-1.5445,-1.5396,-1.5516,-1.5509,-1.5509,-1.5567,-1.5567,-1.5568,-1.554,-1.5538,-1.5535,-1.5533,-1.5583,-1.5586,-1.559,-1.5657,0,0,-1.5602,-1.5604,0,0,0,0,0,0,0,0,-1.5442,-1.545,-1.551,-1.551,-1.551,-1.5545,-1.5542,-1.5598,-1.554,-1.5528,-1.5535,-1.5532,-1.5573,-1.5577,-1.5591,-1.5659,-1.5661,-1.5603,-1.5605,-1.5607,-1.5608,0,0,0,0,0,0,0,-1.5439,-1.5448,-1.5536,-1.551,-1.5511,-1.5503,-1.5508,-1.5553,-1.5562,-1.5529,-1.5527,-1.5533,-1.5572,-1.5588,-1.5592,-1.5662,-1.5603,-1.5606,-1.5609,-1.561,-1.5788,-1.579,0,0,0,0,0,0,-1.5436,-1.5445,-1.5535,-1.5538,-1.547,-1.5507,-1.5513,-1.5535,-1.5561,-1.5563,-1.5535,-1.5532,-1.5582,-1.5588,-1.5594,-1.5674,-1.5607,-1.5611,-1.5613,-1.5785,-1.5788,-1.5791,0,0,0,0,0,0,-1.5433,-1.5444,-1.5533,-1.5491,-1.5501,-1.5511,-1.5537,-1.5538,-1.5553,-1.5566,-1.5567,-1.5549,-1.5581,-1.5588,-1.5642,-1.5675,-1.5612,-1.5616,-1.5783,-1.5786,-1.5789,-1.5835,0,0,0,0,0,0,-1.543,-1.5444,-1.5469,-1.5492,-1.5504,-1.558,-1.5539,-1.554,-1.556,-1.5556,-1.5579,-1.5581,-1.5579,-1.5636,-1.5646,-1.568,-1.5619,-1.578,-1.5784,-1.5788,-1.583,-1.584,-1.5847,0,0,0,0,0,-1.5426,-1.548,-1.5471,-1.5482,-1.5537,-1.5582,-1.5589,-1.5587,-1.5563,-1.5589,-1.5597,-1.558,-1.567,-1.5642,-1.5652,-1.5688,-1.5777,-1.5783,-1.5788,-1.5827,-1.5838,-1.5847,0,0,0,0,0,0,-1.546,-1.5482,-1.5473,-1.5536,-1.5558,-1.5577,-1.561,-1.5599,-1.5627,-1.5622,-1.5617,-1.5623,-1.5678,-1.5688,-1.5656,-1.5754,-1.572,-1.5728,-1.5746,-1.5756,-1.5765,-1.5761,-1.5622,0,0,0,0,0,-1.5476,-1.5512,-1.5529,-1.5582,-1.5594,-1.56,-1.562,-1.5616,-1.5638,-1.5647,-1.5659,-1.5681,-1.5714,-1.5735,-1.5766,-1.5832,-1.5836,-1.5861,-1.587,-1.5877,-1.5883,-1.5919,-1.593,-1.5808,-1.5808,-1.5808,0,0,-1.5507,-1.5523,-1.5546,-1.559,-1.5606,-1.5643,-1.5608,-1.5648,-1.5676,-1.5653,-1.5705,-1.5714,-1.5738,-1.5797,-1.5824,-1.5807,-1.5918,-1.5883,-1.5889,-1.5892,-1.5925,-1.5937,-1.5947,-1.5812,-1.5811,-1.581,0,0,-1.5583,-1.5599,-1.5646,-1.5663,-1.5689,-1.5693,-1.5704,-1.5726,-1.5732,-1.5783,-1.5767,-1.5799,-1.5856,-1.5874,-1.589,-1.5973,-1.5959,-1.5983,-1.6027,-1.6062,-1.6072,-1.608,-1.611,-1.6121,-1.599,-1.599,-1.599,0,-1.5619,-1.5674,-1.5671,-1.5713,-1.5733,-1.5715,-1.5762,-1.5779,-1.5813,-1.5827,-1.5807,-1.5879,-1.5893,-1.5957,-1.5977,-1.5991,-1.6004,-1.5981,-1.6071,-1.6079,-1.6087,-1.6115,-1.6127,-1.5993,-1.5992,-1.5992,-1.5992,0,-1.5717,-1.5756,-1.579,-1.5825,-1.5848,-1.5893,-1.5896,-1.592,-1.5914,-1.592,-1.5973,-1.5989,-1.6024,-1.6038,-1.6033,-1.6102,-1.609,-1.6071,-1.6037,-1.6102,-1.6128,-1.6139,-1.5997,-1.5996,-1.5995,-1.5994,0,0,-1.5816,-1.5849,-1.5862,-1.5877,-1.5904,-1.5934,-1.5977,-1.6012,-1.6033,-1.6056,-1.6093,-1.6141,-1.6124,-1.6142,-1.6139,-1.6169,-1.6234,-1.6146,-1.6146,-1.6162,-1.6311,-1.6326,-1.6339,-1.6225,-1.6227,-1.6228,-1.6309,0,-1.5895,-1.5972,-1.597,-1.6041,-1.6077,-1.606,-1.6098,-1.6119,-1.6125,-1.6156,-1.6163,-1.6198,-1.6171,-1.6183,-1.6212,-1.622,-1.6264,-1.6214,-1.6258,-1.626,-1.6253,-1.6352,-1.6368,-1.6443,-1.632,-1.6321,-1.6323,0,-1.5996,-1.6025,-1.61,-1.6122,-1.6137,-1.6171,-1.6203,-1.6232,-1.6255,-1.6257,-1.6279,-1.627,-1.6314,-1.6278,-1.6338,-1.6304,-1.6321,-1.6328,-1.6331,-1.6335,-1.6295,-1.636,-1.6467,-1.6479,-1.6339,-1.6338,-1.6336,0,-1.6062,-1.6119,-1.6171,-1.6185,-1.6212,-1.6236,-1.6248,-1.6269,-1.629,-1.6317,-1.6331,-1.6362,-1.638,-1.6404,-1.6404,-1.6378,-1.6465,-1.6429,-1.6468,-1.6468,-1.6487,-1.6486,-1.66,-1.6498,-1.6498,-1.6498,-1.6497,0,-1.615,-1.6196,-1.6201,-1.6233,-1.6285,-1.6283,-1.6334,-1.6343,-1.6362,-1.6395,-1.6382,-1.6414,-1.6412,-1.6443,-1.6444,-1.6493,-1.6501,-1.6504,-1.6504,-1.6506,-1.6505,-1.6517,-1.6512,-1.6501,-1.65,-1.6499,-1.6499,0,-1.6232,-1.6237,-1.6293,-1.6314,-1.6321,-1.6358,-1.6376,-1.6406,-1.6411,-1.6454,-1.6464,-1.6472,-1.6509,-1.6511,-1.6553,-1.6553,-1.6614,-1.6607,-1.6606,-1.6605,-1.6644,-1.6641,-1.677,-1.6787,-1.6674,-1.6675,-1.6676,0,-1.6288,-1.6323,-1.6349,-1.6371,-1.6385,-1.642,-1.6441,-1.644,-1.6463,-1.6491,-1.6518,-1.6554,-1.6583,-1.6642,-1.6651,-1.6683,-1.6678,-1.6721,-1.6682,-1.6683,-1.6679,-1.6677,-1.668,-1.6728,-1.673,-1.6731,-1.6731,0,-1.6386,-1.6387,-1.6419,-1.6452,-1.6479,-1.6504,-1.6528,-1.6547,-1.6548,-1.6574,-1.6612,-1.6635,-1.6678,-1.6714,-1.6745,-1.6757,-1.6745,-1.6743,-1.6754,-1.6757,-1.6755,-1.6757,-1.6627,-1.6741,-1.674,-1.6739,-1.6738,-1.6738,-1.6457,-1.6488,-1.6511,-1.6547,-1.6566,-1.6588,-1.6618,-1.6628,-1.666,-1.6696,-1.6692,-1.6735,-1.6756,-1.6797,-1.6811,-1.6844,-1.6829,-1.6845,-1.6849,-1.6853,-1.6857,-1.675,-1.6849,-1.6849,-1.6849,-1.6849,-1.6848,0,-1.6556,-1.657,-1.6603,-1.6638,-1.6666,-1.6653,-1.6678,-1.6703,-1.674,-1.6762,-1.679,-1.6834,-1.6868,-1.688,-1.6914,-1.6937,-1.6933,-1.6946,-1.6945,-1.6948,-1.6868,-1.6855,-1.695,-1.695,-1.695,-1.6949,-1.6949,-1.6949,-1.661,-1.6663,-1.6666,-1.6727,-1.674,-1.6782,-1.6798,-1.6819,-1.6836,-1.6886,-1.6915,-1.6923,-1.694,-1.6975,-1.7006,-1.7008,-1.7021,-1.7037,-1.7038,-1.6963,-1.6953,-1.6943,-1.6932,-1.704,-1.704,-1.7115,-1.7115,-1.7116]}]]